Voltar ao catálogo

FENGYUN 1C DEB

AtivoSSO
NORAD 31782·DEBRIS·🇨🇳 China

Lançado May 10, 1999 de Taiyuan Satellite Launch Center

Loading…

Próximas Passagens (próximas 24 horas)

TLE

AtualizadoSource: Space-Track

Época: Sep 12, 2026, 23:19 UTC

1 31782U 99025CGH 26255.97191243  .00000570  00000-0  20242-3 0  9997
2 31782  98.9297  71.8739 0077781 269.5760 243.3952 14.36843569  6077

Acompanhe FENGYUN 1C DEB em tempo real com AllMySat

Download on the App Store